GFSSW_850_spd_327.txt.gz
Wind_Speed
24 24 23 22 21 21 22 21 19 18 18 22 21 19 19 20 19 16 16 12 13 10 5 4 5 6 7 7 6 4 6 9 15 9 8 5 6 3 1 5 3 4 1 6 15
24 24 24 24 23 22 22 22 21 20 19 19 21 19 18 19 21 20 19 17 11 7 3 7 6 8 7 8 5 8 9 11 7 5 6 5 5 3 5 8 9 7 5 6 15
23 23 24 25 25 25 24 23 23 19 19 19 18 18 17 15 19 3 10 9 7 5 6 6 6 9 11 8 9 6 10 9 6 6 4 6 7 8 8 11 13 12 11 12 15
25 26 25 24 24 25 24 24 24 23 18 17 17 15 13 6 6 0 5 6 5 6 6 6 9 10 8 11 12 9 17 14 9 3 5 8 10 9 13 19 9 5 6 12 17
27 27 27 26 25 24 24 23 23 22 21 17 14 13 8 9 15 14 14 14 8 7 8 9 10 11 11 6 8 14 14 11 12 10 11 12 14 14 19 16 13 11 9 12 15
27 27 28 28 27 25 24 23 22 22 21 18 14 11 9 15 9 13 12 9 7 8 8 7 6 7 10 9 10 3 9 13 13 14 11 12 16 15 13 6 11 18 15 14 15
28 28 28 29 29 28 25 23 22 21 21 17 13 9 14 19 6 7 10 7 8 8 8 6 4 6 3 8 11 10 12 13 16 18 12 4 14 17 23 15 11 12 14 14 15
30 29 29 30 31 30 29 25 23 21 22 13 9 5 11 9 12 13 10 8 8 5 3 4 4 6 7 4 7 9 12 8 8 6 4 6 9 6 5 7 8 8 8 8 11
27 30 30 30 31 31 31 29 24 20 12 7 4 7 12 11 12 10 14 10 8 5 3 2 3 8 4 9 10 12 10 14 7 9 4 11 7 5 4 5 8 11 12 12 10
29 29 29 30 31 30 30 28 22 16 8 8 8 5 14 8 9 12 12 13 8 7 4 6 6 8 8 11 8 10 14 9 8 7 7 10 16 16 18 19 20 17 18 15 13
27 29 29 29 29 29 29 20 12 9 16 12 6 9 2 7 11 11 11 12 9 10 10 10 8 10 14 15 16 9 10 11 10 1 2 12 17 20 15 17 18 18 16 11 14
27 30 32 30 29 29 28 13 12 8 12 19 29 26 15 13 11 13 13 12 11 12 12 5 12 15 6 5 9 11 12 13 11 4 3 12 18 17 15 6 3 6 9 6 7
30 32 30 28 28 23 16 15 16 15 9 19 20 22 24 19 16 18 17 15 9 13 12 14 2 5 4 5 8 11 12 11 11 7 14 11 14 6 5 5 3 1 4 4 6
32 27 28 26 18 11 13 11 15 5 6 11 9 10 23 15 14 12 18 11 8 11 12 10 3 6 9 12 10 11 3 6 6 6 4 1 6 9 10 5 6 6 7 5 4
28 28 30 21 20 18 17 17 14 5 5 2 10 7 17 17 18 12 14 9 10 9 5 4 7 7 8 7 4 1 2 3 6 8 9 9 4 3 8 5 8 7 7 3 4
30 31 32 23 16 19 15 12 13 6 8 5 5 9 14 15 8 12 10 5 0 5 8 13 4 3 6 3 2 5 2 6 5 4 5 6 6 4 5 3 8 8 5 0 7
32 31 35 23 19 15 10 7 4 8 2 5 4 9 15 12 10 11 9 10 7 5 8 8 11 3 5 6 5 6 3 3 4 4 3 4 5 8 5 6 3 5 1 7 10
34 36 21 17 14 12 14 5 5 5 11 6 2 8 13 9 6 10 12 8 6 3 2 6 6 11 8 7 2 11 5 4 5 3 3 5 6 1 4 7 7 4 3 6 9
34 24 16 10 6 8 5 4 4 3 12 4 4 4 6 4 3 8 11 7 5 5 6 4 3 5 1 1 3 5 6 3 3 3 4 7 7 5 7 7 6 5 6 10 12
27 22 10 16 4 5 3 4 5 4 11 6 8 7 8 9 7 7 7 3 4 1 1 2 2 2 4 2 2 4 3 2 3 4 5 5 7 2 9 7 2 6 9 13 14
19 11 7 13 1 2 3 5 7 10 9 4 2 7 4 4 5 4 1 5 2 4 1 3 1 4 3 8 7 4 3 4 3 3 3 5 0 2 7 5 3 5 7 12 15
11 5 14 17 2 4 5 3 6 8 7 4 3 1 5 3 4 3 4 1 3 5 3 2 1 4 2 3 2 5 6 9 4 5 3 3 5 3 6 4 2 5 7 11 13
17 8 8 11 3 3 7 7 5 9 2 4 4 2 7 3 1 6 5 4 5 2 2 3 3 3 3 1 4 5 8 7 2 1 8 5 0 4 3 3 2 4 7 10 12
7 4 5 5 7 4 7 5 3 4 2 3 2 4 2 3 2 3 4 2 4 2 1 1 2 5 7 3 2 3 5 9 8 5 7 11 12 5 2 3 5 4 8 9 11
4 3 5 6 8 13 8 4 6 3 5 5 1 4 3 2 3 2 6 4 4 3 3 2 4 3 11 12 10 12 9 10 14 16 8 9 7 6 8 4 3 4 7 9 11
4 4 6 13 14 8 3 3 7 1 2 3 3 2 1 1 2 4 3 5 2 3 2 1 2 5 7 9 9 14 15 15 15 18 18 18 20 13 3 2 2 4 7 9 12
6 6 6 8 6 7 5 7 8 2 0 5 0 2 2 5 8 9 7 7 4 3 4 2 3 2 3 1 5 10 12 11 9 9 11 13 12 6 1 2 2 5 6 9 12

GFSSW_850_spd_333.txt.gz
Wind_Speed
20 20 21 21 22 23 23 23 21 20 20 19 20 21 19 17 19 17 22 14 12 13 10 9 6 8 10 8 8 3 3 3 4 2 3 3 2 4 4 6 5 4 6 4 23
23 23 23 22 23 23 23 23 23 23 22 23 20 21 18 17 19 25 16 13 12 13 13 13 9 9 6 7 8 4 4 9 5 1 2 3 3 3 3 3 5 12 9 12 20
28 28 28 28 28 28 28 27 27 25 24 23 23 20 18 14 16 6 2 3 13 17 15 13 9 12 13 8 9 6 5 5 1 4 5 2 4 1 5 1 4 6 22 19 21
24 25 26 27 28 30 29 30 30 27 27 25 25 23 18 10 6 5 2 5 9 11 16 15 13 8 5 7 14 4 9 12 11 3 2 4 4 4 5 9 5 4 18 22 21
28 27 27 30 30 28 30 31 30 29 26 25 24 22 20 9 20 13 11 9 11 11 12 14 13 11 5 5 11 6 6 14 14 6 5 4 6 7 9 16 12 2 14 21 18
27 28 27 27 29 29 29 29 31 30 26 24 22 17 17 14 11 9 15 17 14 14 17 17 9 12 6 7 5 4 1 4 5 7 8 6 6 6 7 16 21 13 16 16 17
28 28 29 29 29 32 35 35 35 33 25 24 20 13 19 37 12 12 16 15 13 13 15 15 14 6 3 2 7 5 4 6 5 10 6 8 6 9 24 20 12 14 14 18 16
28 29 30 31 33 36 37 36 35 35 28 25 16 14 17 21 12 19 17 11 12 15 12 10 15 8 3 2 5 2 2 1 6 7 8 11 7 7 15 21 16 12 13 12 15
28 29 31 33 31 37 36 34 36 31 26 23 14 14 14 13 24 23 24 16 16 14 11 10 9 5 3 4 3 3 4 7 6 3 6 5 5 3 7 13 12 9 10 15 15
28 28 32 32 31 38 32 29 25 14 8 8 17 9 18 15 12 21 24 19 18 15 11 5 5 4 2 4 6 7 4 3 5 5 5 6 6 6 5 9 13 15 15 17 18
29 30 32 34 33 29 26 30 24 8 15 10 14 18 18 6 8 13 20 23 21 16 6 7 4 7 12 11 6 4 2 4 4 3 4 7 7 10 12 13 11 6 10 15 21
30 31 33 34 33 18 19 21 16 19 15 28 30 32 37 24 8 12 22 19 11 5 5 3 9 9 10 10 11 10 6 3 4 1 2 5 10 9 8 2 11 14 13 17 19
32 33 34 34 33 9 26 10 22 23 8 19 26 22 34 30 24 17 26 21 6 7 7 6 5 15 12 7 5 5 5 3 6 2 3 2 7 4 3 11 13 9 11 12 14
33 34 35 35 24 25 18 19 16 19 4 7 5 4 12 23 15 24 30 26 5 14 7 9 11 4 5 4 5 4 1 5 4 4 3 3 4 5 4 3 5 10 10 10 9
33 35 32 25 22 20 20 19 18 8 4 4 2 2 3 12 1 23 29 26 8 6 6 6 5 8 5 3 5 4 6 5 3 3 3 3 3 6 6 3 5 6 11 9 6
34 35 25 22 20 18 21 16 12 2 5 5 5 6 2 10 5 3 13 4 3 2 6 3 3 4 3 4 5 8 5 6 5 3 2 7 6 4 4 6 6 5 11 9 4
34 33 24 14 18 19 17 7 1 2 7 9 6 10 7 6 3 3 5 6 6 4 3 4 1 3 4 6 4 5 6 2 1 1 5 4 3 7 2 3 7 9 13 6 3
34 31 10 11 23 14 11 4 3 5 4 2 4 7 4 7 2 3 7 5 3 5 3 5 4 4 3 4 6 5 6 5 6 3 2 4 4 5 4 12 20 16 10 2 4
33 28 9 13 23 10 5 3 4 4 6 7 6 4 1 2 2 3 4 6 3 4 4 4 2 2 6 4 5 4 1 4 5 2 3 4 0 4 4 4 6 7 2 2 4
33 22 7 18 24 5 2 3 4 8 10 5 3 4 4 3 4 6 6 2 5 3 5 1 5 2 2 3 4 4 4 3 3 2 3 4 4 4 6 7 5 2 4 4 6
23 11 11 21 8 2 1 4 5 11 9 5 2 3 3 4 10 3 4 5 4 1 6 3 3 2 3 3 6 1 2 3 4 3 4 1 4 5 7 7 7 6 3 6 8
14 4 14 18 6 2 2 10 10 7 7 4 4 4 3 4 5 5 5 5 10 2 3 4 4 3 5 1 2 3 6 5 4 5 2 3 5 1 6 7 7 4 3 5 8
18 7 11 15 4 4 6 7 4 7 4 3 4 1 1 1 3 4 6 7 12 5 2 2 2 1 1 4 4 1 3 4 5 3 3 4 4 4 3 3 7 5 4 5 7
7 4 6 6 12 3 8 4 7 11 2 7 3 5 4 4 2 3 3 4 5 5 10 4 2 4 4 5 3 1 3 3 5 3 3 5 2 4 6 7 6 5 3 5 6
3 3 2 4 6 9 9 2 11 7 8 10 6 7 2 3 4 3 3 3 3 5 4 4 2 4 5 7 3 4 4 3 4 5 5 4 4 5 6 6 3 2 2 4 6
5 4 5 9 13 5 3 4 9 8 3 5 4 7 6 4 2 2 5 3 3 3 2 3 0 2 4 3 5 5 8 8 7 9 8 9 16 4 4 8 6 3 2 5 8
4 6 6 6 5 3 3 6 12 15 1 2 7 1 3 4 9 8 10 7 6 6 3 3 2 3 4 4 4 5 6 5 5 3 6 9 6 3 3 5 5 1 3 6 8

GFSSW_850_spd_339.txt.gz
Wind_Speed
23 22 23 23 23 23 23 25 24 23 25 27 26 26 27 28 29 28 30 25 18 14 16 12 13 15 16 10 6 5 3 4 6 7 4 0 2 1 3 9 4 6 6 8 28
22 23 24 24 24 24 24 25 26 25 24 23 26 28 25 25 29 34 31 31 26 18 25 20 17 17 10 8 7 4 4 9 4 4 4 1 2 4 3 4 2 4 7 21 28
23 24 26 26 26 26 26 25 26 27 28 26 22 24 27 20 26 32 15 12 15 22 20 18 15 19 9 8 8 6 5 4 3 2 5 3 2 1 7 2 6 8 17 32 30
23 25 24 25 26 27 27 26 27 28 27 26 25 20 24 13 8 2 2 4 7 22 20 21 18 13 6 6 9 3 8 6 3 3 3 2 2 1 4 1 3 7 15 31 32
24 25 25 25 27 27 28 28 29 29 28 27 23 18 20 12 29 20 16 11 14 19 26 25 21 12 7 6 6 5 4 9 15 9 5 4 4 5 6 7 5 8 18 26 30
25 26 27 28 29 30 31 32 31 25 27 28 24 16 15 20 24 19 15 20 20 21 24 24 14 21 9 5 7 5 10 10 7 6 5 6 5 7 8 15 10 12 18 23 28
26 27 29 31 32 34 33 35 35 27 27 25 22 16 19 39 18 17 5 16 21 20 22 24 21 17 8 2 8 3 3 1 4 5 5 7 5 7 19 13 16 19 21 24 26
27 29 31 33 35 37 38 38 35 29 22 18 17 14 15 20 9 27 24 19 25 20 19 16 17 11 5 5 4 5 3 3 3 6 5 7 8 3 5 13 16 17 22 25 27
29 30 33 36 38 38 39 38 36 28 11 13 8 11 12 4 12 18 20 25 26 22 17 13 15 8 6 6 3 3 3 4 4 7 4 6 4 5 6 15 16 17 21 25 25
31 34 35 36 38 39 37 39 30 10 7 10 3 6 11 7 10 25 21 25 18 17 14 11 6 4 3 4 9 4 2 2 4 2 4 4 6 5 2 5 8 13 13 19 21
31 34 35 36 35 31 35 33 27 7 25 22 27 26 30 29 28 10 11 25 18 20 6 3 3 11 6 4 5 4 3 4 3 4 5 7 7 8 4 2 8 11 13 17 19
32 34 35 38 36 24 25 19 21 19 21 31 32 34 37 31 15 19 9 13 12 6 5 4 8 4 7 5 5 4 4 3 4 3 4 3 7 8 2 1 3 10 15 21 22
32 34 35 38 25 26 20 20 21 21 7 21 13 11 11 3 17 17 2 3 6 6 4 5 3 11 8 5 6 3 6 3 6 2 2 1 5 5 2 3 1 2 14 22 24
32 34 34 36 16 28 19 25 18 18 4 6 7 6 12 4 5 19 8 12 4 9 9 5 4 6 4 4 8 5 9 10 5 2 3 3 4 5 1 1 2 3 12 18 21
31 34 38 23 20 23 30 22 15 3 3 8 6 6 25 6 4 5 19 9 4 7 6 7 3 5 5 6 9 3 4 5 3 4 1 2 3 6 2 3 5 6 11 15 16
33 33 34 17 20 26 27 18 4 5 4 7 7 11 9 7 3 5 9 3 5 4 3 5 2 3 6 4 7 6 6 7 4 3 2 5 4 4 3 5 3 4 12 15 15
31 33 20 16 21 28 21 8 5 4 6 9 8 10 6 6 4 6 2 6 3 5 4 0 3 3 3 8 5 5 6 2 2 2 5 3 2 7 4 0 3 7 15 15 13
32 31 12 20 26 22 18 5 6 4 4 5 7 12 3 8 4 3 3 3 1 3 3 5 4 3 6 5 7 3 6 5 6 3 3 4 5 5 2 6 6 15 16 13 9
30 25 16 23 26 17 7 5 4 4 6 8 14 4 5 2 3 3 1 1 5 6 5 4 3 2 4 3 2 4 3 3 6 1 2 3 5 2 2 4 6 14 14 11 6
32 18 14 24 18 12 5 3 2 7 8 4 3 4 4 6 5 1 4 1 2 3 2 3 5 3 3 4 8 2 5 3 3 2 4 4 4 4 4 6 5 4 8 5 4
25 9 14 22 12 10 3 4 6 14 13 3 3 4 5 5 3 5 5 3 2 3 3 4 4 2 2 2 7 3 1 4 4 3 5 1 5 4 5 7 8 7 5 2 4
18 3 16 22 8 3 2 9 11 6 11 4 3 3 4 5 5 4 4 6 11 1 3 3 4 3 1 2 2 1 5 4 4 4 2 3 5 3 4 5 12 11 6 5 8
14 7 11 17 3 3 6 6 4 6 6 5 4 5 4 4 4 5 7 7 12 3 3 2 1 3 3 3 4 2 2 4 5 3 5 5 4 2 3 2 11 9 9 9 9
7 4 7 7 5 2 5 4 10 12 5 6 4 6 8 4 3 4 5 6 10 9 10 2 3 5 5 5 3 3 1 4 5 3 3 5 3 2 4 4 7 11 11 10 8
5 2 2 4 5 5 2 3 11 8 5 7 4 8 6 3 5 3 3 4 5 11 5 4 3 3 3 1 1 2 4 3 4 4 5 4 7 6 6 7 9 11 9 9 9
3 3 4 8 11 5 5 4 7 9 4 4 2 11 5 3 5 4 2 1 1 5 4 5 3 3 4 5 1 2 4 5 2 2 5 2 6 7 4 5 7 9 8 9 8
3 3 5 5 5 3 2 6 10 17 7 10 4 4 4 2 7 6 6 7 3 3 2 3 3 2 3 3 3 4 5 4 2 3 4 5 5 4 3 6 9 11 9 8 9

GFSSW_850_spd_342.txt.gz
Wind_Speed
22 23 23 24 24 24 24 25 25 25 25 25 26 25 24 29 31 31 35 31 26 18 16 15 16 18 19 16 11 8 2 3 4 5 5 3 3 4 5 10 7 7 5 5 27
22 22 23 23 24 25 25 26 25 25 26 25 25 26 22 26 32 37 36 32 32 26 24 23 22 21 12 12 10 6 5 9 5 3 2 1 1 8 6 6 4 7 7 13 28
23 24 24 25 25 26 27 28 28 26 26 26 25 23 25 21 32 21 3 4 11 15 19 25 20 22 10 9 10 8 7 5 4 4 2 2 1 1 10 2 7 10 16 25 30
23 24 24 25 26 27 28 30 31 28 27 25 24 22 22 13 8 1 3 3 4 12 18 22 19 13 5 6 8 4 7 7 4 4 2 1 2 1 4 2 5 8 14 26 29
24 25 26 27 29 30 32 33 33 31 29 24 25 20 19 11 29 21 24 29 9 17 23 26 21 13 6 5 5 4 4 13 12 4 2 2 4 3 4 5 4 11 19 24 26
23 25 27 29 31 33 35 35 35 31 26 23 24 18 17 17 21 18 13 14 13 18 26 26 15 19 8 4 7 5 11 5 5 6 4 5 3 2 4 8 8 12 18 22 25
26 28 30 32 35 36 36 38 37 33 28 27 21 15 20 36 30 24 19 15 10 17 23 28 18 19 9 2 7 4 3 2 5 7 4 8 4 6 15 10 13 16 19 22 25
27 29 33 35 37 38 40 37 37 30 25 18 13 14 16 22 19 12 15 18 17 14 18 19 22 13 6 8 4 4 4 2 2 6 3 9 5 4 14 14 18 19 21 25 26
28 30 34 36 37 41 37 41 31 18 11 10 10 8 10 6 10 9 25 15 15 12 15 13 19 9 6 5 3 5 4 3 4 7 3 5 3 3 8 12 20 19 20 23 24
29 31 34 36 38 35 35 39 30 7 6 16 3 5 8 5 11 23 23 14 11 12 12 10 7 4 2 5 9 4 4 1 3 1 3 3 5 4 1 4 16 18 17 18 21
29 31 34 36 37 27 35 37 29 8 31 13 27 20 31 25 22 26 18 11 14 16 6 3 4 10 13 5 6 6 4 4 2 3 3 6 6 10 3 6 8 11 14 18 19
30 31 34 36 31 21 29 23 20 18 18 18 14 15 14 15 10 12 7 7 7 10 6 4 5 3 8 7 6 4 4 4 3 3 4 1 6 7 3 2 4 9 12 16 18
30 31 34 36 20 24 26 26 20 17 6 17 13 9 7 10 5 7 2 5 11 4 4 5 1 8 7 5 7 4 7 5 4 3 2 2 5 2 1 2 2 5 11 15 17
30 31 34 30 15 28 25 26 20 10 4 6 6 5 10 14 3 5 3 1 4 8 7 2 4 4 6 5 6 6 7 8 5 2 3 3 4 4 1 3 1 3 10 16 19
31 31 33 20 22 25 28 23 14 1 4 11 7 8 23 1 8 3 7 4 2 3 6 7 7 4 2 5 5 3 5 6 4 4 2 2 3 6 3 4 6 6 10 15 18
32 31 27 18 21 27 25 22 3 5 4 7 8 10 9 5 7 5 2 2 2 7 2 3 4 6 8 3 7 11 8 7 5 2 1 4 4 5 3 5 2 4 11 15 16
29 29 15 21 27 26 24 10 4 5 5 9 8 12 10 5 5 6 1 3 2 4 2 2 3 5 4 9 4 4 6 2 2 1 4 3 2 7 2 2 3 6 14 15 15
29 25 13 22 25 23 19 5 6 3 5 5 6 14 4 7 3 6 1 2 2 2 3 5 2 2 4 3 7 5 5 5 6 3 3 2 5 5 2 4 5 7 15 15 14
29 18 15 21 21 19 8 5 4 4 5 8 12 4 5 3 1 5 4 1 1 2 4 4 2 4 3 1 3 4 2 4 7 1 3 3 6 3 2 5 5 13 17 15 10
29 10 19 22 15 12 6 3 3 5 7 3 4 4 5 6 6 3 3 5 4 0 1 2 4 4 3 2 8 2 5 4 3 3 3 4 4 4 2 3 5 3 12 11 6
23 6 18 22 10 10 3 3 5 11 14 3 3 4 5 5 4 5 7 2 5 1 2 4 3 2 3 1 6 2 2 5 5 3 5 1 5 4 5 6 8 8 10 8 4
15 3 16 23 9 3 2 4 8 9 9 4 3 3 4 7 3 4 4 5 13 3 2 1 5 3 1 2 3 2 4 4 4 4 2 3 4 2 6 5 12 12 8 5 3
14 5 9 17 4 3 7 5 5 6 7 6 4 5 3 5 5 5 5 7 16 7 2 2 2 3 2 3 3 2 2 4 5 3 6 5 4 1 1 3 10 12 9 7 9
7 4 5 9 6 2 5 5 8 12 5 9 4 6 6 3 2 4 7 3 6 8 9 2 3 4 4 5 2 3 1 3 4 3 4 5 2 2 2 3 6 12 9 10 10
6 1 2 4 4 6 0 5 7 8 5 7 3 5 7 4 6 5 4 6 4 12 4 3 3 3 4 3 2 2 4 4 3 4 5 4 6 5 5 7 12 11 11 9 7
4 3 3 5 8 6 5 3 8 9 3 6 5 10 4 2 3 4 5 3 2 6 4 5 3 2 4 5 6 1 1 3 1 2 4 3 5 7 2 4 8 10 6 5 6
5 3 2 3 2 3 2 5 9 17 7 9 10 9 3 3 5 2 5 5 3 1 4 4 3 3 2 4 4 4 5 4 2 3 5 3 2 1 2 4 7 7 8 7 10